This is the latest recevied weather packets stored in our database for station/object KF6FPU-15. If no packets are shown the sender has not sent any weather packets the latest 10 day(s).
| Time | Temp. | Humidity | Pressure | Rain* | Wind** | Luminosity | Snow |
|---|---|---|---|---|---|---|---|
| 1777791108 | 27.22° C | 20% | 1011.1 hPa | - | - | - | - |
| 1777790508 | 27.22° C | 20% | 1011.2 hPa | - | - | - | - |
| 1777789908 | 27.22° C | 20% | 1011.2 hPa | - | - | - | - |
| 1777789308 | 27.22° C | 20% | 1011.5 hPa | - | - | - | - |
| 1777788708 | 27.22° C | 20% | 1011.3 hPa | - | - | - | - |
| 1777788108 | 26.11° C | 20% | 1011.3 hPa | - | - | - | - |
| 1777787508 | 27.78° C | 20% | 1011.2 hPa | - | - | - | - |
| 1777786908 | 27.78° C | 20% | 1011.4 hPa | - | - | - | - |
| 1777786308 | 27.78° C | 20% | 1011.4 hPa | - | - | - | - |
| 1777785708 | 27.78° C | 20% | 1011.5 hPa | - | - | - | - |
| 1777784508 | 27.78° C | 20% | 1011.4 hPa | - | - | - | - |
| 1777783908 | 27.78° C | 20% | 1011.2 hPa | - | - | - | - |
| 1777783308 | 27.78° C | 20% | 1011 hPa | - | - | - | - |
| 1777782708 | 27.78° C | 20% | 1011.1 hPa | - | - | - | - |
| 1777782108 | 28.33° C | 20% | 1010.9 hPa | - | - | - | - |
| 1777781508 | 28.33° C | 20% | 1011 hPa | - | - | - | - |
| 1777780908 | 28.33° C | 20% | 1010.9 hPa | - | - | - | - |
| 1777780308 | 28.33° C | 20% | 1010.7 hPa | - | - | - | - |
| 1777779708 | 28.33° C | 20% | 1010.7 hPa | - | - | - | - |
| 1777779108 | 28.33° C | 20% | 1010.6 hPa | - | - | - | - |
| 1777777908 | 28.33° C | 20% | 1010.1 hPa | - | - | - | - |
| 1777777308 | 27.78° C | 20% | 1010 hPa | - | - | - | - |
| 1777776708 | 27.22° C | 20% | 1010 hPa | - | - | - | - |
| 1777776108 | 25° C | 19% | 1010 hPa | - | - | - | - |
| 1777775508 | 25° C | 19% | 1009.9 hPa | - | - | - | - |
* Rain since midnight (hover to see other rain measurements)
** Current wind speed in m/s (hover to see current wind gust speed)